175  
ASUS43 KDMX 201506  
RWRIA  
 
WEATHER ROUNDUP FOR IOWA  
NATIONAL WEATHER SERVICE DES MOINES IA  
900 AM CST WED FEB 20 2019  
 
NOTE: "FAIR" INDICATES FEW OR NO CLOUDS BELOW 12,000 FEET WITH NO  
SIGNIFICANT WEATHER AND/OR S TO VISIBILITY
.  
 
* - THESE STATIONS ARE NOT NWS STATIONS...THUS NOT UNDER NWS  
QUALITY CONTROL. THEY ALSO DO NOT REPORT WEATHER SUCH  
AS PRECIPITATION OR FOG.
 
 
IAZ001>003-012>014-020>022-031>034-043>046-201600-  
NORTHWEST IOWA  
 
CITY SKY/WX TMP DP RH WIND PRES REMARKS
 
CARROLL * CLOUDY 25 27 100 SE8 29.67F FOG WCI 16  
CHEROKEE * LGT SNOW 24 23 96 SE3 29.67F  
DENISON * LGT SNOW 27 25 93 S6 29.68F WCI 20  
LE MARS * CLOUDY 21 21 100 SE8 29.66F FOG WCI 12  
ORANGE CITY * LGT SNOW 23 21 93 CALM 29.65F  
SHELDON * LGT SNOW 21 21 100 E8 29.64F WCI 12  
SIOUX CITY SNOW 20 19 96 S5 29.68S VSB 1/2 WCI 13  
SPENCER LGT SNOW 24 21 88 E9 29.66F VSB 1 WCI 14  
STORM LAKE * LGT SNOW 23 23 100 SE7 29.65F VSB 3/4 WCI 15  

 
 
IAZ055>058-069>071-079>083-090>094-201600-  
SOUTHWEST IOWA  
 
CITY SKY/WX TMP DP RH WIND PRES REMARKS
 
ATLANTIC * MIX PCPN 27 28 100 S9 29.69S WCI 17  
AUDUBON * LGT SNOW 27 25 93 CALM 29.67F  
CLARINDA * LGT SNOW 27 27 100 S7 29.74S WCI 19  
COUNCIL BLFS * MOSUNNY 27 27 100 S7 29.69R FOG WCI 19  
CRESTON * CLOUDY 28 28 100 S10 29.70F FOG WCI 19  
HARLAN * LGT SNOW 27 27 100 S6 29.68S WCI 20  
LAMONI CLOUDY 29 27 92 S7 29.71S FOG WCI 22  
RED OAK * LGT SNOW 28 28 100 S8 29.71S WCI 20  
SHENANDOAH * LGT SNOW 28 28 100 SW9 29.72F WCI 20  

 
 
IAZ047>049-059>061-072>074-084-201600-  
CENTRAL IOWA  
 
CITY SKY/WX TMP DP RH WIND PRES REMARKS
 
AMES LGT SNOW 27 26 96 SE10 29.71F FOG WCI 17  
ANKENY * CLOUDY 28 27 93 SE6 29.73F FOG WCI 22  
BOONE * CLOUDY 27 27 100 SE10 29.68F FOG WCI 17  
CHARITON * MIX PCPN 28 28 100 S8 29.71F WCI 20  
DES MOINES LGT SNOW 28 27 96 SE7 29.71F VSB 1 WCI 21  
GRINNELL* LGT SNOW 28 27 96 SE8 29.73F VSB 3/4 WCI 20  
KNOXVILLE * CLOUDY 28 28 100 S7 29.72F FOG WCI 21  
MARSHALLTOWN LGT SNOW 27 26 96 SE13 29.72F VSB 3/4 WCI 16  
NEWTON * CLOUDY 28 28 100 SE12 29.72F FOG WCI 18  
PELLA * LGT SNOW 30 27 91 SE6 29.74F WCI 24  
PERRY * LGT SNOW 28 28 100 CALM 29.70F  

 
 
IAZ004>006-015-016-023>025-035-036-201600-  
NORTH CENTRAL IOWA  
 
CITY SKY/WX TMP DP RH WIND PRES REMARKS
 
ALGONA * LGT SNOW 25 25 100 SE12 29.67F VSB 1 WCI 14  
CLARION * FOG 25 25 100 SE12 29.70F VSB 3/4 WCI 14  
ESTHERVILLE LGT SNOW 22 21 96 E12 29.67F VSB 1 WCI 10  
FORT DODGE * LGT SNOW 27 27 100 SE6 29.69F FOG WCI 20  
MASON CITY LGT SNOW 24 23 96 SE13 29.73F FOG WCI 12  
FOREST CITY * LGT SNOW 27 27 100 SE9 29.71F WCI 17  
IOWA FALLS * LGT SNOW 27 26 94 SE9 29.72F WCI 18  

 
 
IAZ007>011-017>019-026>030-037>042-050>054-066-201600-  
NORTHEAST IOWA  
 
CITY SKY/WX TMP DP RH WIND PRES REMARKS
 
CEDAR RAPIDS SNOW 28 27 96 SE13 29.75F VSB 1/2 WCI 17  
CHARLES CITY * SNOW 25 25 100 SE12 29.75R VSB 1/4 WCI 14  
CLINTON * MIX PCPN 30 29 96 SE21 29.80S FOG WCI 17  
DECORAH * LGT SNOW 25 27 100 E15G21 29.73F VSB 3/4 WCI 12  
DUBUQUE LGT SNOW 27 25 92 E18G29 29.76F VSB 3/4 WCI 14  
OELWEIN * FOG 25 27 100 SE16 29.75R VSB 1/4 WCI 12  
WATERLOO LGT SNOW 27 25 92 SE13 29.75F VSB 3/4 WCI 16  

 
 
IAZ064-065-067-068-078-201600-  
EAST CENTRAL IOWA  
 
CITY SKY/WX TMP DP RH WIND PRES REMARKS
 
DAVENPORT CLOUDY 31 28 89 SE18 29.80F FOG WCI 19  
IOWA CITY LGT SNOW 30 29 96 SE8 29.78F VSB 3/4 WCI 22  
MT. PLEASANT * LGT RAIN 34 34 100 SE7 29.77F WCI 28  
MUSCATINE * N/A 32 30 93 SE10 29.78F FOG WCI 24  
QUAD CITIES CLOUDY 33 31 92 SE14 29.79F FOG WCI 23  

 
 
IAZ062-063-075>077-085>089-095>099-201600-  
SOUTHEAST IOWA  
 
CITY SKY/WX TMP DP RH WIND PRES REMARKS
 
BURLINGTON CLOUDY 33 31 92 S7 29.77F FOG WCI 27  
FAIRFIELD * FOG 32 30 93 SE13G18 29.75S VSB 1 WCI 22  
FORT MADISON * CLOUDY 32 32 100 SE6 29.78F FOG WCI 26  
KEOKUK * CLOUDY 32 32 100 SE6 29.77F FOG WCI 26  
OSKALOOSA * LGT SNOW 29 28 96 SE9 29.74F WCI 21  
OTTUMWA CLOUDY 30 29 96 S10 29.74S FOG WCI 21  
WASHINGTON * FOG 32 32 100 SE10 29.77F VSB 3/4 WCI 24  

 
 
ABBREVIATIONS USED IN REMARKS  
TC - TEMPERATURES IN CELSIUS  
WCI - WIND CHILL INDEX  
HX - HEAT INDEX  
VSB - VISIBILITY  

 
 
 
 
CLICK HERE TO GO TO PREVIOUS BULLETINS.

The Nexlab IA Page Main Text Page